TVF8776 LFLL-DTTA

Flight info

Callsign TVF8776
Flight time N/A
Altitude 37000
Route ROMAM T43 BEPER DCT RETNO DCT KOLON DCT LOKDU DCT PELOS DCT IPROM DCT KOVAS DCT CAR DCT NOLSI UA868 TUC
Aircraft B738/M-SDE2E3FGHIRWXY/LB1

Departure

Time 2026-05-04 10:09
Airport Lyon Saint-Exupéry Airport (LFLL)

Arrival

Time N/A
Airport Tunis Carthage International Airport (DTTA)
Time Latitude Longitude Altitude Speed Heading
2026-05-04 09:40 45.71821 5.08043 811 ft 0 kts 261°
2026-05-04 09:58 45.71822 5.08051 810 ft 4 kts 265°
2026-05-04 10:00 45.71807 5.08115 811 ft 0 kts 297°
2026-05-04 10:02 45.72034 5.08254 807 ft 10 kts 13°
2026-05-04 10:04 45.72445 5.08398 801 ft 10 kts 357°
2026-05-04 10:04 45.72520 5.08391 799 ft 11 kts 356°
2026-05-04 10:04 45.72574 5.08383 799 ft 12 kts 353°
2026-05-04 10:04 45.72659 5.08375 797 ft 13 kts 356°
2026-05-04 10:05 45.72761 5.08358 796 ft 18 kts 356°
2026-05-04 10:05 45.72888 5.08344 794 ft 18 kts 355°
2026-05-04 10:05 45.73052 5.08327 791 ft 17 kts 356°
2026-05-04 10:05 45.73170 5.08312 789 ft 17 kts 354°
2026-05-04 10:06 45.73255 5.08300 788 ft 20 kts 355°
2026-05-04 10:06 45.73405 5.08283 786 ft 23 kts 354°
2026-05-04 10:06 45.73569 5.08262 784 ft 26 kts 355°
2026-05-04 10:08 45.74355 5.08407 771 ft 7 kts 84°
2026-05-04 10:08 45.74360 5.08503 771 ft 12 kts 90°
2026-05-04 10:08 45.74328 5.08608 773 ft 12 kts 136°
2026-05-04 10:08 45.74227 5.08646 774 ft 33 kts 173°
2026-05-04 10:09 45.73757 5.08704 777 ft 101 kts 175°
2026-05-04 10:09 45.72865 5.08817 795 ft 155 kts 175°
2026-05-04 10:09 45.71676 5.08984 1200 ft 177 kts 173°
2026-05-04 10:09 45.70512 5.09105 2370 ft 159 kts 177°
2026-05-04 10:10 45.69399 5.09212 3090 ft 170 kts 175°
2026-05-04 10:10 45.68116 5.09344 3276 ft 201 kts 175°
2026-05-04 10:10 45.66647 5.09492 3634 ft 217 kts 176°
2026-05-04 10:10 45.65138 5.09653 4367 ft 217 kts 175°
2026-05-04 10:11 45.63582 5.09822 4850 ft 235 kts 175°
2026-05-04 10:11 45.61927 5.10023 5540 ft 241 kts 176°
2026-05-04 10:11 45.60230 5.10233 6278 ft 248 kts 176°
2026-05-04 10:11 45.58532 5.09993 7064 ft 248 kts 198°
2026-05-04 10:12 45.56901 5.09122 7819 ft 252 kts 202°
2026-05-04 10:12 45.55276 5.08165 8598 ft 256 kts 202°
2026-05-04 10:12 45.53602 5.07179 9347 ft 261 kts 203°
2026-05-04 10:12 45.51914 5.06205 10125 ft 264 kts 202°
2026-05-04 10:13 45.50159 5.05203 10493 ft 282 kts 202°
2026-05-04 10:13 45.48263 5.04125 10696 ft 302 kts 203°
2026-05-04 10:13 45.46386 5.02678 11098 ft 312 kts 217°
2026-05-04 10:13 45.44727 5.00659 11717 ft 315 kts 221°
2026-05-04 10:14 45.43102 4.98529 12026 ft 317 kts 222°
2026-05-04 10:14 45.41496 4.96391 12043 ft 317 kts 222°